Location: Albany
(35.0170°S, 117.8920°E)
Time: 01:06:42
(UTC+08:00)

Explorer 7 - Pass Details

Date: 29 January 2021
Orbit: 484 x 677 km, 50.3° (Epoch: 01 March)

Event Time Altitude Azimuth Distance (km) Brightness Sun altitude
Rises 18:32:18 0° 227° (SW) 3,008 11.8 8.0°
Reaches altitude 10° 18:35:48 10° 201° (SSW) 2,060 10.4 7.3°
Maximum altitude 18:38:19 14° 169° (S) 1,771 9.5 6.8°
Drops below altitude 10° 18:40:46 10° 137° (SE) 1,996 9.4 6.3°
Sets 18:44:04 0° 111° (ESE) 2,850 10.0 5.7°
